******************************************************************************* JPL/HORIZONS 144P/Kushida 2025-Dec-12 17:47:36 Rec #:90001074 (+COV) Soln.date: 2024-Dec-30_09:07:42 # obs: 3111 (2016-2024) IAU76/J2000 helio. ecliptic osc. elements (au, days, deg., period=Julian yrs): EPOCH= 2459962.5 ! 2023-Jan-18.0000000 (TDB) RMSW= n.a. EC= .635106242235967 QR= 1.397335846964307 TP= 2460335.2998523312 OM= 242.9794186068251 W= 216.3454827839557 IN= 3.930392618525045 A= 3.829432039415502 MA= 310.9681527095778 ADIST= 6.261528231866697 PER= 7.4939320706734 N= .131523248 ANGMOM= .026001885 DAN= 4.67765 DDN= 1.51155 L= 99.2605214 B= -2.3281722 MOID= .41667601 TP= 2024-Jan-25.7998523312 Comet physical (GM= km^3/s^2; RAD= km): GM= n.a. RAD= n.a. M1= 12.9 M2= 16.1 k1= 18.75 k2= 5. PHCOF= .030 COMET comments 1: soln ref.= JPL#K242/35, data arc: 2016-08-01 to 2024-06-05 2: k1=18.75, k2=5., phase coef.=0.03; ******************************************************************************* ******************************************************************************* Ephemeris / WWW_USER Fri Dec 12 17:47:36 2025 Pasadena, USA / Horizons ******************************************************************************* Target body name: 144P/Kushida {source: JPL#K242/35} Center body name: Mars (499) {source: mar099} Center-site name: BODYCENTRIC ******************************************************************************* Start time : A.D. 2119-May-17 11:19:00.0000 UT Stop time : A.D. 2119-May-18 00:00:00.0000 UT Step-size : 1440 minutes ******************************************************************************* Target pole/equ : undefined Target radii : undefined Center geodetic : 0.0, 0.0, -3396.19 {W-lon(deg),Lat(deg),Alt(km)} Center cylindric: 0.0, 0.0, 0.0 {W-lon(deg),Dxy(km),Dz(km)} Center pole/equ : IAU_MARS {West-longitude positive} Center radii : 3396.19, 3396.19, 3376.2 km {Equator_a, b, pole_c} Target primary : Sun Vis. interferer : PHOBOS (R_eq= 13.000) km {source: mar099} Rel. light bend : Sun {source: DE441} Rel. lght bnd GM: 1.3271E+11 km^3/s^2 Small-body perts: Yes {source: SB441-N16} Atmos refraction: NO (AIRLESS) RA format : HMS Time format : CAL Calendar mode : Mixed Julian/Gregorian EOP file : eop.251212.p260310 EOP coverage : DATA-BASED 1962-JAN-20 TO 2025-DEC-12. PREDICTS-> 2026-MAR-09 Units conversion: 1 au= 149597870.700 km, c= 299792.458 km/s, 1 day= 86400.0 s Table cut-offs 1: Elevation (-90.0deg=NO ),Airmass n.a. , Daylight (NO ) Table cut-offs 2: Solar elongation ( 0.0,180.0=NO ),Local Hour Angle( 0.0=NO ) Table cut-offs 3: RA/DEC angular rate ( 0.0=NO ) ******************************************************************************* Initial IAU76/J2000 heliocentric ecliptic osculating elements (au, days, deg.): EPOCH= 2459962.5 ! 2023-Jan-18.0000000 (TDB) RMSW= n.a. EC= .635106242235967 QR= 1.397335846964307 TP= 2460335.2998523312 OM= 242.9794186068251 W= 216.3454827839557 IN= 3.930392618525045 Equivalent ICRF heliocentric cartesian coordinates (au, au/d): X= 3.244651278185880E+00 Y=-1.574889677942231E+00 Z=-4.116147211180651E-01 VX=-2.064418900369136E-03 VY= 8.436490940865961E-03 VZ= 3.213127813383691E-03 Comet physical (GM= km^3/s^2; RAD= km): GM= n.a. RAD= n.a. M1= 12.9 M2= 16.1 k1= 18.75 k2= 5. PHCOF= .030 ******************************************************************************************************************************** Date__(UT)__HR:MN r rdot delta deldot VmagSn VmagOb RNG_3sigma RNGRT_3sig ******************************************************************************************************************************** $$SOE 2119-May-17 11:19 1.678921249631 11.9670814 0.04838760896948 0.0526388 28.6289599 13.6038791 2547.6219 0.0000804 $$EOE ******************************************************************************************************************************** Column meaning: TIME Times PRIOR to 1962 are UT1, a mean-solar time closely related to the prior but now-deprecated GMT. Times AFTER 1962 are in UTC, the current civil or "wall-clock" time-scale. UTC is kept within 0.9 seconds of UT1 using integer leap-seconds for 1972 and later years. Conversion from the internal Barycentric Dynamical Time (TDB) of solar system dynamics to the non-uniform civil UT time-scale requested for output has not been determined for UTC times after the next July or January 1st. Therefore, the last known leap-second is used as a constant over future intervals. Time tags refer to the UT time-scale conversion from TDB on Earth regardless of observer location within the solar system, although clock rates may differ due to the local gravity field and no analog to "UT" may be defined for that location. Any 'b' symbol in the 1st-column denotes a B.C. date. First-column blank (" ") denotes an A.D. date. CALENDAR SYSTEM Mixed calendar mode was active such that calendar dates after AD 1582-Oct-15 (if any) are in the modern Gregorian system. Dates prior to 1582-Oct-5 (if any) are in the Julian calendar system, which is automatically extended for dates prior to its adoption on 45-Jan-1 BC. The Julian calendar is useful for matching historical dates. The Gregorian calendar more accurately corresponds to the Earth's orbital motion and seasons. A "Gregorian-only" calendar mode is available if such physical events are the primary interest. NOTE: "n.a." in output means quantity "not available" at the print-time. STATISTICAL UNCERTAINTIES Output includes formal +/- 3 standard-deviation statistical orbit uncertainty quantities. There is a 99.7% (1-D) or 98.9% (2-D) chance the actual value is within given bounds. These statistical calculations assume observational data errors are random. If there are systematic biases (such as timing, reduction or star-catalog errors), results can be optimistic. Because the epoch covariance is mapped using linearized variational partial derivatives, results can also be optimistic for times far from the solution epoch, particularly for objects having close planetary encounters. 'r rdot' = The Sun's apparent range ("r", light-time aberrated) and range-rate ("rdot") relative to the target center, as seen by the observer. A positive "rdot" means the target center was moving away from the Sun, negative means moving toward the Sun. Units: AU and KM/S 'delta deldot' = Apparent range ("delta", light-time aberrated) and range-rate ("delta-dot") of the target center relative to the observer. A positive "deldot" means the target center is moving away from the observer, negative indicates movement toward the observer. Units: AU and KM/S 'VmagSn VmagOb' = Magnitude of target centers' velocity with respect to the Sun ("VmagSn") and the observer ("VmagOb") at the time light left the target center to be observed (print time minus down-leg light-time). These are absolute values of the velocity vectors (total speeds) and do NOT indicate direction of motion. Units: KM/S 'RNG_3sigma RNGRT_3sig' = Range and range rate (radial velocity) formal 3-standard-deviation uncertainties. Units: KM, KM/S Computations by ... Solar System Dynamics Group, Horizons On-Line Ephemeris System 4800 Oak Grove Drive, Jet Propulsion Laboratory Pasadena, CA 91109 USA General site: https://ssd.jpl.nasa.gov/ Mailing list: https://ssd.jpl.nasa.gov/email_list.html System news : https://ssd.jpl.nasa.gov/horizons/news.html User Guide : https://ssd.jpl.nasa.gov/horizons/manual.html Connect : browser https://ssd.jpl.nasa.gov/horizons/app.html#/x API https://ssd-api.jpl.nasa.gov/doc/horizons.html command-line telnet ssd.jpl.nasa.gov 6775 e-mail/batch https://ssd.jpl.nasa.gov/ftp/ssd/horizons_batch.txt scripts https://ssd.jpl.nasa.gov/ftp/ssd/SCRIPTS Author : Jon.D.Giorgini@jpl.nasa.gov ******************************************************************************************************************************** !$$SOF CENTER = '@499' COMMAND = 'DES=144P;CAP' QUANTITIES = '19,20,22,39' START_TIME = '2119-May-17 11:19' STEP_SIZE = '1 day' STOP_TIME = '2119-May-18'